Wind_Speed
7 6 6 6 6 6 7 7 8 9 11 13 14 16 15 14 12 11 10 11 10 9
7 6 5 5 6 6 8 9 10 10 11 13 14 17 17 16 13 13 13 12 12 12
9 8 8 7 5 7 8 9 12 10 11 13 15 18 21 19 18 18 15 16 15 14
8 9 9 10 10 8 8 10 12 13 12 13 15 18 21 22 20 20 19 18 17 17
7 9 13 9 11 13 12 10 11 13 14 15 15 16 20 21 21 22 22 21 20 20
9 7 6 8 8 11 15 15 12 14 16 16 17 18 19 21 22 23 23 22 23 23
9 8 8 9 8 8 9 10 13 15 18 17 18 18 20 22 24 24 24 24 24 24
12 11 10 10 11 9 8 8 9 11 13 17 20 21 21 24 26 26 25 26 27 27
15 16 16 17 17 17 15 12 11 12 12 14 15 18 23 26 28 27 27 29 27 27
17 19 22 23 23 22 20 18 17 16 16 17 18 20 22 21 23 25 26 28 30 27
16 18 20 22 22 22 19 19 20 21 21 21 22 23 26 22 24 23 22 26 29 29
13 14 15 17 18 20 21 21 20 20 21 23 24 24 28 25 23 23 24 26 26 27
17 18 18 18 18 18 18 20 20 21 21 22 25 26 28 29 26 25 27 27 27 30
22 22 22 21 23 24 26 26 26 24 24 24 24 24 25 27 28 26 27 28 27 27
Wind_Direction
285 282 272 278 244 256 250 245 237 240 231 227 226 227 233 235 243 244 255 260 253 253
274 278 240 249 249 252 244 237 242 236 231 231 232 227 227 239 238 241 251 254 264 258
272 279 281 274 303 274 245 248 232 240 238 237 235 229 229 231 242 246 248 249 242 249
281 268 256 269 292 288 281 267 257 251 243 239 237 236 236 233 233 241 244 243 249 250
315 290 289 273 275 274 272 264 256 245 244 240 238 237 239 240 239 247 246 247 247 247
340 341 332 319 293 269 264 266 259 257 248 243 241 239 238 239 241 242 245 247 247 247
337 329 326 318 315 307 296 284 274 260 253 249 245 242 240 243 246 246 247 247 249 250
314 313 315 316 317 314 303 291 290 280 268 259 253 254 253 248 245 245 248 246 248 252
304 304 303 304 303 303 300 293 286 282 277 271 269 262 254 256 256 253 249 248 248 251
288 288 290 291 293 293 292 289 284 279 274 273 273 272 271 269 268 262 257 257 253 247
295 296 295 294 292 290 289 283 280 277 276 275 273 271 274 274 272 268 265 258 254 253
299 298 299 299 298 295 294 291 287 282 275 272 271 267 272 274 271 268 264 260 260 258
305 304 302 299 298 294 291 291 290 286 282 278 276 273 271 273 270 267 265 267 266 264
307 306 302 298 296 294 292 288 287 288 285 282 280 277 271 268 264 261 262 262 265 263
Height
1547 1547 1549 1550 1551 1552 1553 1553 1553 1555 1555 1557 1560 1562 1564 1565 1567 1569 1570 1570 1571 1572
1544 1545 1547 1547 1547 1549 1548 1550 1550 1551 1553 1555 1556 1558 1561 1562 1565 1565 1567 1568 1569 1569
1543 1543 1543 1544 1545 1545 1545 1545 1547 1548 1549 1550 1551 1553 1555 1558 1561 1562 1563 1563 1563 1566
1540 1540 1540 1542 1542 1541 1542 1542 1542 1543 1545 1547 1548 1549 1550 1552 1555 1557 1557 1558 1559 1560
1538 1537 1536 1538 1538 1539 1539 1539 1539 1540 1541 1542 1543 1545 1547 1548 1550 1552 1553 1554 1555 1555
1538 1538 1537 1535 1535 1535 1535 1535 1536 1536 1537 1538 1539 1540 1541 1542 1544 1545 1547 1548 1549 1549
1537 1537 1535 1533 1533 1533 1532 1531 1531 1531 1532 1532 1533 1534 1536 1537 1537 1538 1539 1540 1541 1542
1535 1534 1533 1532 1531 1530 1530 1530 1529 1529 1528 1528 1528 1528 1529 1529 1530 1530 1531 1532 1532 1533
1532 1531 1530 1529 1528 1527 1526 1526 1526 1525 1525 1524 1524 1524 1522 1522 1522 1522 1522 1522 1524 1525
1530 1528 1527 1524 1522 1521 1520 1520 1519 1519 1520 1519 1518 1517 1516 1515 1514 1514 1515 1514 1515 1516
1525 1522 1520 1518 1516 1515 1514 1514 1513 1513 1512 1512 1511 1511 1509 1509 1508 1507 1506 1506 1506 1507
1520 1518 1516 1514 1511 1509 1507 1506 1506 1506 1505 1505 1504 1503 1502 1502 1501 1500 1499 1498 1498 1498
1514 1512 1510 1508 1506 1505 1503 1502 1501 1499 1498 1496 1494 1493 1493 1493 1492 1491 1491 1490 1489 1488
1508 1506 1504 1501 1499 1497 1496 1494 1492 1491 1490 1488 1486 1485 1484 1483 1482 1483 1483 1483 1482 1482